DW9313 Weather Reports


Display with metric or nautical units.
time (UTC)temp
F
wind
direction
speed
MPH
gust
MPH
rain 1hr
in
rain 24hr
in
rain mn
in
humidity
%
barometer
mb
20260901133234 62 288 1.0 3.0 0.01 0.01 0.01 91 1018.0
20260901132235 62 289 1.0 3.0 0.01 0.01 0.01 88 1018.2
20260901131235 63 307 2.0 15.0 0.00 0.00 0.00 84 1018.3
20260901130735 65 295 9.0 17.0 0.00 0.00 0.00 81 1018.3
20260901130236 66 306 3.0 9.0 0.00 0.00 0.00 81 1018.2
20260901125235 66 299 4.0 16.0 0.00 0.00 0.00 79 1018.0
20260901124735 66 314 3.0 10.0 0.00 0.00 0.00 79 1017.9
20260901124235 66 291 6.0 14.0 0.00 0.00 0.00 78 1017.9
20260901123236 67 308 5.0 14.0 0.00 0.00 0.00 79 1017.8
20260901122735 67 288 5.0 13.0 0.00 0.00 0.00 79 1017.8
20260901122236 67 288 7.0 14.0 0.00 0.00 0.00 78 1017.8
20260901121735 67 331 6.0 13.0 0.00 0.00 0.00 77 1017.8
20260901120735 67 338 4.0 8.0 0.00 0.00 0.00 78 1017.8
20260901120236 67 300 3.0 12.0 0.00 0.00 0.00 80 1017.8
20260901115735 67 303 5.0 9.0 0.00 0.00 0.00 79 1017.8
20260901115235 66 291 5.0 16.0 0.00 0.00 0.00 80 1017.7
20260901114236 67 297 5.0 9.0 0.00 0.00 0.00 80 1017.8
20260901113735 66 292 5.0 10.0 0.00 0.00 0.00 80 1017.8
20260901113235 66 306 5.0 12.0 0.00 0.00 0.00 79 1017.8
20260901112735 67 325 1.0 13.0 0.00 0.00 0.00 79 1017.9
20260901112235 67 289 3.0 7.0 0.00 0.00 0.00 79 1017.8
20260901111237 67 197 2.0 7.0 0.00 0.00 0.00 79 1017.8
20260901110737 67 303 3.0 6.0 0.00 0.00 0.00 78 1017.8
20260901110236 67 293 2.0 6.0 0.00 0.00 0.00 78 1017.9
20260901105737 67 325 4.0 9.0 0.00 0.00 0.00 78 1017.9
20260901105237 67 333 2.0 6.0 0.00 0.00 0.00 78 1017.9
20260901104737 67 299 3.0 6.0 0.00 0.00 0.00 77 1018.0
20260901104237 67 299 3.0 7.0 0.00 0.00 0.00 78 1017.9
20260901103238 67 300 2.0 5.0 0.00 0.00 0.00 78 1017.8
20260901102736 67 317 2.0 7.0 0.00 0.00 0.00 78 1017.8
20260901101736 66 304 2.0 7.0 0.00 0.00 0.00 80 1017.9
20260901101236 66 270 3.0 8.0 0.00 0.00 0.00 79 1017.9
20260901100738 66 311 5.0 9.0 0.00 0.00 0.00 79 1017.9
20260901100237 67 295 3.0 12.0 0.00 0.00 0.00 79 1017.9
20260901095736 67 303 4.0 8.0 0.00 0.00 0.00 79 1017.9
20260901095236 67 244 2.0 6.0 0.00 0.00 0.00 80 1018.0
20260901094236 66 208 1.0 3.0 0.00 0.00 0.00 81 1017.8
20260901093736 66 310 3.0 6.0 0.00 0.00 0.00 81 1017.9
20260901093236 65 285 3.0 6.0 0.00 0.00 0.00 81 1017.8
20260901092738 65 289 2.0 6.0 0.00 0.00 0.00 82 1017.8
20260901092237 65 314 2.0 6.0 0.00 0.00 0.00 82 1017.8
20260901091736 65 300 1.0 7.0 0.00 0.00 0.00 82 1017.8
20260901091237 65 299 3.0 7.0 0.00 0.00 0.00 82 1017.8
20260901085738 65 299 3.0 6.0 0.00 0.00 0.00 82 1017.8
20260901085237 65 273 2.0 6.0 0.00 0.00 0.00 83 1017.8
20260901084738 65 258 1.0 5.0 0.00 0.00 0.00 83 1017.8
20260901084238 64 264 2.0 6.0 0.00 0.00 0.00 84 1017.8
20260901083237 64 300 2.0 5.0 0.00 0.00 0.00 85 1017.6
20260901082739 63 281 1.0 6.0 0.00 0.00 0.00 85 1017.5
20260901082237 63 298 1.0 3.0 0.00 0.00 0.00 86 1017.6
20260901081737 62 257 0.0 5.0 0.00 0.00 0.00 87 1017.6
20260901080738 62 292 2.0 6.0 0.00 0.00 0.00 88 1017.8
20260901080236 61 291 1.0 6.0 0.00 0.00 0.00 88 1017.9
20260901075737 61 290 1.0 3.0 0.00 0.00 0.00 89 1018.0
20260901075238 60 297 1.0 6.0 0.00 0.00 0.00 90 1017.9
20260901074237 60 290 2.0 5.0 0.00 0.00 0.00 90 1018.1
20260901073737 59 289 0.0 2.0 0.00 0.00 0.00 91 1018.1
20260901073237 59 284 0.0 2.0 0.00 0.00 0.00 91 1018.0
20260901072238 59 275 0.0 1.0 0.00 0.00 0.00 90 1017.9
20260901071737 59 138 0.0 0.0 0.00 0.00 0.00 91 1017.9
20260901071238 59 141 0.0 1.0 0.00 0.00 0.00 91 1018.0
20260901070738 58 109 0.0 0.0 0.00 0.00 0.00 92 1018.0
20260901065737 57 107 0.0 0.0 0.00 0.00 0.00 92 1017.9
20260901065238 57 107 0.0 0.0 0.00 0.00 0.00 92 1017.9
20260901064737 57 145 0.0 1.0 0.00 0.00 0.00 92 1017.9
20260901064239 56 112 0.0 0.0 0.00 0.00 0.00 92 1017.9
20260901063737 57 112 0.0 1.0 0.00 0.00 0.00 91 1018.0
20260901063238 57 127 0.0 0.0 0.00 0.00 0.00 92 1017.9
20260901062237 57 133 0.0 1.0 0.00 0.00 0.00 92 1018.0
20260901061738 57 24 0.0 1.0 0.00 0.00 0.00 91 1018.0
20260901061237 57 6 0.0 1.0 0.00 0.00 0.00 91 1018.0
20260901060738 57 6 0.0 1.0 0.00 0.00 0.00 91 1018.0
20260901060238 57 323 0.0 1.0 0.00 0.00 0.00 91 1018.0
20260901054740 57 311 0.0 2.0 0.00 0.00 0.00 91 1017.9
20260901054238 57 307 0.0 2.0 0.00 0.00 0.00 91 1017.9
20260901053739 57 307 0.0 1.0 0.00 0.00 0.00 91 1017.9
20260901053238 57 306 0.0 2.0 0.00 0.00 0.00 91 1017.8
20260901052238 57 285 0.0 1.0 0.00 0.00 0.00 91 1017.7
20260901051739 57 299 1.0 2.0 0.00 0.00 0.00 91 1017.7
20260901051239 57 297 1.0 2.0 0.00 0.00 0.00 91 1017.6
20260901050740 57 299 0.0 2.0 0.00 0.00 0.00 91 1017.7
20260901050239 56 297 0.0 2.0 0.00 0.00 0.00 91 1017.7
20260901045738 56 287 1.0 2.0 0.00 0.00 0.00 92 1017.8
20260901045238 56 326 0.0 2.0 0.00 0.00 0.00 92 1017.7
20260901044739 56 286 0.0 1.0 0.00 0.00 0.00 91 1017.7
20260901044238 55 285 0.0 2.0 0.00 0.00 0.00 91 1017.7
20260901043739 55 276 0.0 2.0 0.00 0.00 0.00 91 1017.7
20260901042739 56 285 0.0 1.0 0.00 0.00 0.00 90 1017.7
20260901042240 56 287 0.0 1.0 0.00 0.00 0.00 91 1017.7
20260901041740 56 311 0.0 0.0 0.00 0.00 0.00 90 1017.7
20260901041239 56 311 0.0 0.0 0.00 0.00 0.00 90 1017.7
20260901040740 56 311 0.0 0.0 0.00 0.00 0.00 90 1017.7
20260901035747 56 294 0.0 1.0 0.00 0.00 0.00 89 1017.6
20260901034745 56 287 0.0 1.0 0.00 0.00 0.00 90 1017.6
20260901034244 56 291 0.0 0.0 0.00 0.00 0.00 89 1017.6
20260901033742 56 291 0.0 0.0 0.00 0.00 0.00 89 1017.6
20260901033239 56 291 0.0 0.0 0.00 0.00 0.00 89 1017.7
20260901032739 56 291 0.0 1.0 0.00 0.00 0.00 89 1017.7
20260901032240 56 287 0.0 1.0 0.00 0.00 0.00 90 1017.7
20260901031240 56 320 1.0 3.0 0.00 0.00 0.00 91 1017.7
20260901030740 55 288 0.0 1.0 0.00 0.00 0.00 91 1017.7
20260901030239 55 291 0.0 2.0 0.00 0.00 0.00 91 1017.8
20260901025740 55 138 0.0 1.0 0.00 0.00 0.00 91 1017.7
20260901025240 55 121 0.0 1.0 0.00 0.00 0.00 92 1017.7
20260901024739 55 115 0.0 5.0 0.00 0.00 0.00 92 1017.7
20260901024240 54 106 0.0 0.0 0.00 0.00 0.00 93 1017.8
20260901023741 54 145 0.0 0.0 0.00 0.00 0.00 93 1017.8
20260901023240 54 145 0.0 0.0 0.00 0.00 0.00 92 1017.9
20260901022741 54 145 0.0 0.0 0.00 0.00 0.00 93 1017.9
20260901022240 54 150 0.0 0.0 0.00 0.00 0.00 93 1017.9
20260901021741 54 150 0.0 0.0 0.00 0.00 0.00 93 1017.9
20260901021240 53 149 0.0 0.0 0.00 0.00 0.00 93 1017.8
20260901020740 53 148 0.0 0.0 0.00 0.00 0.00 94 1017.8
20260901020240 52 148 0.0 0.0 0.00 0.00 0.00 93 1017.9
20260901015739 52 148 0.0 0.0 0.00 0.00 0.00 93 1017.9
20260901014739 52 148 0.0 0.0 0.00 0.00 0.00 92 1018.0
20260901014240 52 148 0.0 0.0 0.00 0.00 0.00 92 1018.0
20260901013740 52 69 0.0 0.0 0.00 0.00 0.00 92 1018.0
20260901013240 52 69 0.0 0.0 0.00 0.00 0.00 92 1018.0
20260901012742 52 69 0.0 0.0 0.00 0.00 0.00 91 1018.0
20260901012241 52 69 0.0 0.0 0.00 0.00 0.00 92 1018.0
20260901010740 52 69 0.0 0.0 0.00 0.00 0.00 92 1018.0
20260901005740 52 5 0.0 0.0 0.00 0.00 0.00 91 1018.0
20260901004740 52 102 0.0 0.0 0.00 0.00 0.00 91 1018.0
20260901004241 52 102 0.0 0.0 0.00 0.00 0.00 91 1018.0
20260901003741 52 100 0.0 0.0 0.00 0.00 0.00 91 1018.1
20260901003241 52 99 0.0 0.0 0.00 0.00 0.00 91 1018.1
20260901002742 52 99 0.0 0.0 0.00 0.00 0.00 90 1018.1
20260901002240 52 99 0.0 0.0 0.00 0.00 0.00 90 1018.1
20260901001741 52 99 0.0 0.0 0.00 0.00 0.00 90 1018.1
20260901000741 52 99 0.0 0.0 0.00 0.00 0.00 90 1018.1
20260831235741 52 99 0.0 0.0 0.00 0.00 0.00 90 1018.1
20260831235240 52 99 0.0 0.0 0.00 0.00 0.00 90 1018.1
20260831234241 52 140 0.0 0.0 0.00 0.00 0.00 90 1018.3
20260831233740 52 202 0.0 0.0 0.00 0.00 0.00 90 1018.3
20260831233241 52 142 0.0 0.0 0.00 0.00 0.00 90 1018.3
20260831232741 52 140 0.0 0.0 0.00 0.00 0.00 89 1018.3
20260831232241 53 155 0.0 0.0 0.00 0.00 0.00 89 1018.3
20260831231742 53 180 0.0 0.0 0.00 0.00 0.00 89 1018.3
20260831230805 53 228 0.0 0.0 0.00 0.00 0.00 89 1018.4
20260831225742 53 228 0.0 0.0 0.00 0.00 0.00 88 1018.4
20260831224742 53 228 0.0 0.0 0.00 0.00 0.00 88 1018.4
20260831224241 54 228 0.0 0.0 0.00 0.00 0.00 87 1018.4
20260831223741 54 228 0.0 0.0 0.00 0.00 0.00 87 1018.5
20260831223241 54 228 0.0 0.0 0.00 0.00 0.00 87 1018.5
20260831222743 54 228 0.0 0.0 0.00 0.00 0.00 86 1018.5
20260831221741 55 272 0.0 1.0 0.00 0.00 0.00 85 1018.5
20260831221243 55 272 0.0 0.0 0.00 0.00 0.00 85 1018.4
20260831220742 55 285 0.0 0.0 0.00 0.00 0.00 84 1018.3
20260831220242 56 285 0.0 0.0 0.00 0.00 0.00 84 1018.3
20260831215742 56 285 0.0 0.0 0.00 0.00 0.00 84 1018.4
20260831214742 56 285 0.0 0.0 0.00 0.00 0.00 85 1018.4
20260831214242 56 285 0.0 0.0 0.00 0.00 0.00 85 1018.3
20260831213742 56 285 0.0 0.0 0.00 0.00 0.00 85 1018.2
20260831213242 56 285 0.0 0.0 0.00 0.00 0.00 84 1018.2
20260831212742 57 285 0.0 1.0 0.00 0.00 0.00 84 1018.2
20260831212242 57 285 0.0 1.0 0.00 0.00 0.00 85 1018.1
20260831211742 57 285 0.0 0.0 0.00 0.00 0.00 84 1018.1
20260831211244 57 285 0.0 0.0 0.00 0.00 0.00 84 1018.2
20260831210742 57 284 0.0 0.0 0.00 0.00 0.00 84 1018.1
20260831205742 58 284 0.0 0.0 0.00 0.00 0.00 84 1018.2
20260831205242 58 284 0.0 0.0 0.00 0.00 0.00 83 1018.2
20260831203743 59 298 0.0 1.0 0.00 0.01 0.00 83 1018.1
20260831203242 59 291 0.0 1.0 0.00 0.01 0.00 83 1018.1
20260831202742 59 292 0.0 1.0 0.00 0.01 0.00 83 1018.0
20260831202244 59 292 0.0 0.0 0.00 0.01 0.00 82 1018.0
20260831201742 60 292 0.0 0.0 0.00 0.01 0.00 81 1018.0
20260831201243 60 292 0.0 0.0 0.00 0.01 0.00 81 1018.0
20260831200744 60 292 0.0 0.0 0.00 0.01 0.00 80 1018.0
20260831200243 61 292 0.0 0.0 0.00 0.01 0.00 80 1018.0
20260831195742 61 292 0.0 1.0 0.00 0.01 0.00 80 1017.9
20260831195243 61 292 0.0 1.0 0.00 0.01 0.00 79 1017.9
20260831194744 61 293 0.0 0.0 0.00 0.01 0.00 79 1017.9
20260831194243 62 293 0.0 0.0 0.00 0.01 0.00 79 1017.8
20260831193745 62 293 0.0 0.0 0.00 0.01 0.00 79 1017.8
20260831192743 62 293 0.0 0.0 0.00 0.02 0.00 78 1017.7
20260831192243 62 293 0.0 0.0 0.00 0.02 0.00 78 1017.7
20260831191743 62 293 0.0 1.0 0.00 0.02 0.00 77 1017.6
20260831190744 63 295 0.0 1.0 0.00 0.02 0.00 77 1017.6
20260831190243 63 289 0.0 0.0 0.00 0.02 0.00 76 1017.5
20260831185743 63 301 0.0 2.0 0.00 0.02 0.00 76 1017.5
20260831184745 63 277 1.0 3.0 0.00 0.02 0.00 75 1017.4
20260831184243 63 290 1.0 3.0 0.00 0.02 0.00 74 1017.4
20260831183743 63 284 2.0 3.0 0.00 0.02 0.00 74 1017.5
20260831183244 64 284 1.0 5.0 0.00 0.02 0.00 73 1017.4
20260831182744 64 277 2.0 6.0 0.00 0.02 0.00 72 1017.4
20260831182243 64 271 3.0 7.0 0.00 0.02 0.00 71 1017.4
20260831180744 66 287 4.0 7.0 0.00 0.02 0.00 68 1017.3
20260831180244 66 287 4.0 7.0 0.00 0.02 0.00 68 1017.2
20260831175745 66 295 5.0 10.0 0.00 0.02 0.00 67 1017.1
20260831175243 67 306 5.0 10.0 0.00 0.02 0.00 67 1017.1
20260831174745 67 286 5.0 7.0 0.00 0.02 0.00 68 1017.0
20260831174243 67 279 5.0 10.0 0.00 0.02 0.00 68 1017.0
20260831173744 67 296 6.0 8.0 0.00 0.02 0.00 68 1017.0
20260831173245 67 304 5.0 8.0 0.00 0.02 0.00 68 1017.0
20260831172744 67 282 2.0 6.0 0.00 0.02 0.00 69 1017.0
20260831172244 66 291 2.0 8.0 0.00 0.02 0.00 70 1017.0
20260831171745 66 286 3.0 6.0 0.00 0.03 0.00 70 1017.0
20260831171244 66 284 3.0 6.0 0.00 0.03 0.00 70 1016.9
20260831170244 66 297 3.0 6.0 0.00 0.03 0.00 69 1016.7
20260831165743 66 285 2.0 6.0 0.00 0.04 0.00 69 1016.8
20260831165245 66 296 2.0 6.0 0.00 0.04 0.00 69 1016.7
20260831164744 66 284 2.0 6.0 0.00 0.04 0.00 69 1016.7
20260831164246 66 282 1.0 7.0 0.00 0.04 0.00 69 1016.7
20260831163244 66 274 3.0 6.0 0.00 0.04 0.00 68 1016.6
20260831162746 66 298 3.0 6.0 0.00 0.04 0.00 68 1016.7
20260831162244 66 297 2.0 6.0 0.00 0.04 0.00 68 1016.6
20260831161746 66 290 3.0 7.0 0.00 0.04 0.00 68 1016.6
20260831161244 66 289 3.0 8.0 0.00 0.04 0.00 67 1016.6
20260831160744 66 303 5.0 9.0 0.00 0.04 0.00 67 1016.6
20260831160244 66 299 1.0 6.0 0.00 0.04 0.00 67 1016.6
20260831155745 66 286 3.0 7.0 0.00 0.05 0.00 67 1016.6
20260831154745 66 291 3.0 8.0 0.00 0.06 0.00 66 1016.6
20260831154245 66 319 4.0 7.0 0.00 0.06 0.00 66 1016.5
20260831153744 65 306 6.0 9.0 0.00 0.06 0.00 66 1016.6
20260831153245 65 291 6.0 10.0 0.00 0.06 0.00 65 1016.6
20260831152746 65 310 4.0 7.0 0.00 0.07 0.00 67 1016.5
20260831151744 65 290 3.0 8.0 0.00 0.07 0.00 67 1016.5
20260831151246 65 284 6.0 12.0 0.00 0.07 0.00 66 1016.4
20260831150744 65 301 6.0 12.0 0.00 0.07 0.00 66 1016.4
20260831150244 65 296 6.0 12.0 0.00 0.07 0.00 67 1016.4
20260831145746 65 282 6.0 12.0 0.00 0.07 0.00 66 1016.4
20260831145246 65 293 5.0 9.0 0.00 0.07 0.00 68 1016.4
20260831144747 65 277 4.0 12.0 0.00 0.07 0.00 69 1016.4
20260831143747 65 291 7.0 12.0 0.00 0.07 0.00 69 1016.5
20260831143245 65 307 8.0 14.0 0.00 0.07 0.00 68 1016.3
20260831142746 65 290 7.0 13.0 0.00 0.07 0.00 68 1016.3
20260831142247 66 302 6.0 14.0 0.00 0.07 0.00 66 1016.2
20260831141745 66 290 6.0 10.0 0.00 0.07 0.00 66 1016.1
20260831141245 66 270 5.0 12.0 0.00 0.07 0.00 66 1016.1
20260831140246 66 307 5.0 10.0 0.00 0.07 0.00 64 1016.0
20260831135247 66 294 3.0 9.0 0.00 0.07 0.00 64 1016.0
20260831134748 66 295 6.0 10.0 0.00 0.07 0.00 63 1016.0
20260831133746 66 298 6.0 9.0 0.00 0.07 0.00 64 1016.0